Location: *
(51.1248°S, 108.4023°W)
Time: 03:29:29
(UTC+00:00)

CZ-4 R/B - Pass Details

Date: 15 June 2021
Orbit: 532 x 596 km, 97.8° (Epoch: 31 July)

Event Time Altitude Azimuth Distance (km) Brightness Sun altitude
Rises 14:16:57 0° 357° (N) 2,844 5.3 -8.8°
Reaches altitude 10° 14:19:13 10° 350° (N) 1,948 4.3 -8.5°
Maximum altitude 14:23:14 42° 278° (W) 876 2.0 -7.9°
Drops below altitude 10° 14:27:18 10° 206° (SSW) 1,956 3.6 -7.3°
Enters shadow 14:29:16 - 200° (SSW) 2,735 4.4 -7.1°
